Regional Weather Roundup
Issued by NWS

Home | Current Version | Previous Version | Text Only | Print | Product List | Glossary Off
Versions: 1 2 3 4 5 6 7 8 9 10 11 12 13 14 15 16 17 18 19 20 21 22 23 24 25 26 27 28 29 30 31 32 33 34 35 36 37 38 39 40 41 42 43 44 45 46 47 48 49 50

000
ASUS43 KIND 052059
RWRIN

WEATHER ROUNDUP FOR INDIANA
NATIONAL WEATHER SERVICE INDIANAPOLIS IN
500 PM EDT SUN JUL 05 2015

NOTE: "FAIR" INDICATES FEW OR NO CLOUDS BELOW 12,000 FEET WITH NO
SIGNIFICANT WEATHER AND/OR OBSTRUCTIONS TO VISIBILITY.

* - STATION DOES NOT REPORT WEATHER SUCH AS PRECIPITATION OR FOG.

+ - STATION NOT QUALITY CONTROLLED BY THE NATIONAL WEATHER SERVICE.
    USE DATA WITH CAUTION...ESPECIALLY DEWPOINT AND RELATIVE
    HUMIDITY OBSERVATIONS.

INZ001>003-010>013-019-020-052200-
NORTHWEST INDIANA

CITY           SKY/WX    TMP DP  RH WIND       PRES   REMARKS
MONTICELLO +   MOSUNNY   81  61  51 CALM      30.06F
RENSSELAER +   SUNNY     81  59  47 SE5       30.07F

$$

LMZ046-743>745-052200-
SOUTHERN LAKE MICHIGAN

STATION/POSITION TIME  TEMP    WIND        PRES    WAVE
                       AIR SEA DIR/SP/G            HT
                 (UTC) (F)     (DEG/KT/KT) (MB)    (FT)
BURNS HARBOR     2000   73      70/ 11/ 12 1018.3F
MICHIGAN CITY    2000   69      10/  6/  6   N/A
5NW MICH CITY    2000   71 69   80/  4/  6   N/A     1

$$

INZ004-005-014>016-021>024-052200-
NORTH CENTRAL INDIANA

CITY           SKY/WX    TMP DP  RH WIND       PRES   REMARKS
ELKHART        SUNNY     82  57  42 SE5       30.08S
GOSHEN         SUNNY     81  61  50 S7        30.08S
SOUTH BEND     MOSUNNY   84  60  44 S9        30.08R

$$

INZ006>009-017-018-025>027-052200-
NORTHEAST INDIANA

CITY           SKY/WX    TMP DP  RH WIND       PRES   REMARKS
ANGOLA *+        N/A     82  75  78 SW5       30.09F
FORT WAYNE     PTSUNNY   80  60  50 S3        30.09F

$$

INZ028-029-035-036-043>045-051>053-052200-
WEST CENTRAL INDIANA

CITY           SKY/WX    TMP DP  RH WIND       PRES   REMARKS
CRAWFORDSVL +  PTSUNNY   80  57  45 SW6       30.07F
GREENCASTLE +  CLOUDY    81  61  50 S6        30.08S
LAFAYETTE      SUNNY     82  60  47 CALM      30.06F
TERRE HAUTE    PTSUNNY   84  64  50 NE3       30.06S

$$

INZ030>032-037>040-046>048-054>057-064-065-052200-
CENTRAL INDIANA

CITY           SKY/WX    TMP DP  RH WIND       PRES   REMARKS
INDIANAPOLIS   CLOUDY    79  61  53 SE10      30.07S
-EAGLE CREEK   PTSUNNY   81  60  48 CALM      30.07S
KOKOMO *+      MOSUNNY   81  61  50 S3        30.07F
MT COMFORT *+  PTSUNNY   77  52  41 CALM      30.09F
SHELBYVILLE    PTSUNNY   83  63  50 CALM      30.08S

$$

INZ033-034-041-042-049-050-058-059-052200-
EAST CENTRAL INDIANA

CITY           SKY/WX    TMP DP  RH WIND       PRES   REMARKS
MUNCIE         PTSUNNY   80  61  52 VRB3      30.09S

$$

INZ060-061-067>069-081>083-085>088-052200-
SOUTHWEST INDIANA

CITY           SKY/WX    TMP DP  RH WIND       PRES   REMARKS
EVANSVILLE     MOSUNNY   83  68  60 E5        30.06S
HUNTINGBURG *+ PTSUNNY   81  66  61 S3        30.06S

$$

INZ062-063-066-070>080-084-089>092-052200-
SOUTH CENTRAL AND SOUTHEAST INDIANA

CITY           SKY/WX    TMP DP  RH WIND       PRES   REMARKS
BLOOMINGTON    CLOUDY    80  65  59 CALM      30.07F
MADISON *+     CLOUDY    77  55  47 E3        30.11S
SEYMOUR +      PTSUNNY   79  66  65 SE6       30.07F

$$



USA.gov is the U.S. government's official web portal to all federal, state and local government web resources and services.